OM6ACB-6 Weather Reports


Display with metric or nautical units.
time (UTC)temp
F
wind
direction
speed
MPH
gust
MPH
rain 1hr
in
rain 24hr
in
rain mn
in
humidity
%
barometer
mb
20260505140456 77 224 6.0 8.0 0.00 0.00 0.00 20 1014.4
20260505124453 77 321 7.0 11.0 0.00 0.00 0.00 20 1014.9
20260505123453 83 264 7.0 10.0 0.00 0.00 0.00 20 1015.3
20260505122453 81 252 5.0 8.0 0.00 0.00 0.00 20 1015.4
20260505121453 81 239 6.0 8.0 0.00 0.00 0.00 20 1015.4
20260505120452 82 261 5.0 7.0 0.00 0.00 0.00 20 1015.6
20260505115452 82 205 7.0 12.0 0.00 0.00 0.00 20 1015.7
20260505114452 81 268 6.0 10.0 0.00 0.00 0.00 20 1015.8
20260505113451 84 252 8.0 14.0 0.00 0.00 0.00 20 1016.0
20260505112451 81 233 9.0 13.0 0.00 0.00 0.00 20 1015.8
20260505111451 80 228 10.0 13.0 0.00 0.00 0.00 20 1015.9
20260505110451 80 208 9.0 11.0 0.00 0.00 0.00 20 1015.9
20260505101449 76 18 4.0 10.0 0.00 0.00 0.00 20 1016.0
20260505100449 78 260 7.0 12.0 0.00 0.00 0.00 20 1016.1
20260505095449 75 251 9.0 13.0 0.00 0.00 0.00 21 1015.9
20260505094448 76 282 8.0 13.0 0.00 0.00 0.00 20 1016.1
20260505093448 79 275 6.0 8.0 0.00 0.00 0.00 20 1016.5
20260505092448 77 351 7.0 11.0 0.00 0.00 0.00 20 1016.4
20260505091447 77 295 10.0 13.0 0.00 0.00 0.00 20 1016.4
20260505090447 76 234 7.0 13.0 0.00 0.00 0.00 20 1016.4
20260505085447 76 236 7.0 12.0 0.00 0.00 0.00 20 1016.5
20260505084446 76 244 4.0 8.0 0.00 0.00 0.00 20 1016.6
20260505083446 76 331 2.0 6.0 0.00 0.00 0.00 20 1016.7
20260505082446 77 256 5.0 9.0 0.00 0.00 0.00 20 1016.9
20260505081446 76 306 2.0 4.0 0.00 0.00 0.00 20 1016.8
20260505080447 76 237 2.0 4.0 0.00 0.00 0.00 20 1016.9
20260505075446 73 253 0.0 3.0 0.00 0.00 0.00 21 1016.8
20260505074445 75 196 0.0 0.0 0.00 0.00 0.00 21 1016.9
20260505073445 71 152 0.0 2.0 0.00 0.00 0.00 22 1016.9
20260505072444 67 148 1.0 1.0 0.00 0.00 0.00 23 1016.5
20260505071444 66 154 0.0 1.0 0.00 0.00 0.00 23 1016.5
20260505070444 66 171 1.0 2.0 0.00 0.00 0.00 23 1016.7
20260505065443 66 155 1.0 2.0 0.00 0.00 0.00 23 1016.7
20260505064443 62 105 0.0 1.0 0.00 0.00 0.00 24 1016.5
20260505063443 62 151 0.0 1.0 0.00 0.00 0.00 24 1016.5
20260505062442 60 160 0.0 1.0 0.00 0.00 0.00 25 1016.5
20260505061442 60 166 0.0 2.0 0.00 0.00 0.00 25 1016.4
20260505060442 61 161 1.0 2.0 0.00 0.00 0.00 24 1016.5
20260505055442 59 140 0.0 1.0 0.00 0.00 0.00 25 1016.4
20260505054441 58 181 0.0 1.0 0.00 0.00 0.00 25 1016.4
20260505053441 55 132 0.0 1.0 0.00 0.00 0.00 26 1016.0
20260505052441 55 0 0.0 0.0 0.00 0.00 0.00 26 1016.2
20260505051440 45 0 0.0 0.0 0.00 0.00 0.00 29 1015.2
20260505050440 45 0 0.0 0.0 0.00 0.00 0.00 29 1015.2
20260505041439 36 0 0.0 0.0 0.00 0.00 0.00 45 1014.5
20260505040438 36 0 0.0 0.0 0.00 0.00 0.00 45 1014.5
20260505035438 36 0 0.0 0.0 0.00 0.00 0.00 45 1014.5
20260505034438 36 0 0.0 0.0 0.00 0.00 0.00 45 1014.5
20260505033437 36 0 0.0 0.0 0.00 0.00 0.00 45 1014.5
20260505032437 36 0 0.0 0.0 0.00 0.00 0.00 45 1014.5
20260505031437 36 0 0.0 0.0 0.00 0.00 0.00 45 1014.6
20260505030437 36 0 0.0 0.0 0.00 0.00 0.00 45 1014.6
20260505025436 36 0 0.0 0.0 0.00 0.00 0.00 45 1014.7
20260505024436 36 0 0.0 0.0 0.00 0.00 0.00 45 1014.8
20260505023436 36 0 0.0 0.0 0.00 0.00 0.00 45 1014.8
20260505022435 36 0 0.0 0.0 0.00 0.00 0.00 45 1014.9
20260505021435 36 0 0.0 0.0 0.00 0.00 0.00 45 1015.0
20260505020435 36 0 0.0 0.0 0.00 0.00 0.00 45 1015.0
20260505015435 36 0 0.0 0.0 0.00 0.00 0.00 45 1015.1
20260505014434 36 0 0.0 0.0 0.00 0.00 0.00 46 1015.1
20260505013434 36 0 0.0 0.0 0.00 0.00 0.00 46 1015.2
20260505012434 36 0 0.0 0.0 0.00 0.00 0.00 46 1015.2
20260505011433 36 0 0.0 0.0 0.00 0.00 0.00 43 1015.3
20260505010433 37 0 0.0 0.0 0.00 0.00 0.00 45 1015.3
20260505005433 37 0 0.0 0.0 0.00 0.00 0.00 45 1015.3
20260505004433 37 0 0.0 0.0 0.00 0.00 0.00 44 1015.4
20260505003432 36 0 0.0 0.0 0.00 0.00 0.00 42 1015.5
20260505002432 37 0 0.0 0.0 0.00 0.00 0.00 37 1015.7
20260505001432 37 0 0.0 0.0 0.00 0.00 0.00 37 1015.8
20260505000431 37 0 0.0 0.0 0.00 0.00 0.00 37 1015.9
20260504235431 37 0 0.0 0.0 0.00 0.00 0.00 37 1016.0
20260504234431 38 0 0.0 0.0 0.00 0.00 0.00 36 1016.1
20260504233430 40 0 0.0 0.0 0.00 0.00 0.00 30 1016.4
20260504232430 40 0 0.0 0.0 0.00 0.00 0.00 30 1016.5
20260504231430 40 0 0.0 0.0 0.00 0.00 0.00 30 1016.5
20260504230430 40 0 0.0 0.0 0.00 0.00 0.00 30 1016.6
20260504225429 39 0 0.0 0.0 0.00 0.00 0.00 36 1016.5
20260504224429 39 0 0.0 0.0 0.00 0.00 0.00 36 1016.5
20260504223429 40 0 0.0 0.0 0.00 0.00 0.00 33 1016.5
20260504222428 40 0 0.0 0.0 0.00 0.00 0.00 35 1016.6
20260504221428 40 0 0.0 0.0 0.00 0.00 0.00 35 1016.6
20260504220428 41 0 0.0 0.0 0.00 0.00 0.00 30 1016.8
20260504215428 42 0 0.0 0.0 0.00 0.00 0.00 30 1016.8
20260504214427 42 0 0.0 0.0 0.00 0.00 0.00 30 1016.8
20260504213427 43 0 0.0 0.0 0.00 0.00 0.00 29 1017.0
20260504212427 43 0 0.0 0.0 0.00 0.00 0.00 29 1017.0
20260504211426 45 0 0.0 0.0 0.00 0.00 0.00 29 1017.1
20260504210426 44 0 0.0 0.0 0.00 0.00 0.00 29 1017.0
20260504205426 44 0 0.0 0.0 0.00 0.00 0.00 29 1017.0
20260504204425 46 0 0.0 0.0 0.00 0.00 0.00 29 1017.2
20260504203425 47 0 0.0 0.0 0.00 0.00 0.00 28 1017.2
20260504202425 48 0 0.0 0.0 0.00 0.00 0.00 28 1017.2
20260504201425 48 0 0.0 0.0 0.00 0.00 0.00 28 1017.2
20260504200424 48 0 0.0 0.0 0.00 0.00 0.00 28 1017.1
20260504195424 49 0 0.0 0.0 0.00 0.00 0.00 28 950.9
20260504194424 -25 0 0.0 0.0 0.00 0.00 0.00 13 950.8
20260504193423 -25 0 0.0 0.0 0.00 0.00 0.00 13 950.8
20260504192423 -25 0 0.0 0.0 0.00 0.00 0.00 13 950.7
20260504191423 -25 0 0.0 0.0 0.00 0.00 0.00 13 950.6
20260504190423 -25 0 0.0 0.0 0.00 0.00 0.00 13 950.6
20260504185422 -25 0 0.0 0.0 0.00 0.00 0.00 13 950.5
20260504184422 -25 0 0.0 0.0 0.00 0.00 0.00 13 950.5
20260504183422 -25 0 0.0 0.0 0.00 0.00 0.00 13 950.4
20260504182421 59 0 0.0 0.0 0.00 0.00 0.00 25 1017.6
20260504181421 59 1 0.0 0.0 0.00 0.00 0.00 25 1017.6
20260504180421 60 345 1.0 1.0 0.00 0.00 0.00 25 1017.6
20260504175421 62 314 0.0 1.0 0.00 0.00 0.00 24 1017.7
20260504174420 63 0 0.0 0.0 0.00 0.00 0.00 24 1017.9
20260504173420 65 293 1.0 1.0 0.00 0.00 0.00 23 1017.9
20260504172420 66 328 1.0 2.0 0.00 0.00 0.00 23 1018.1
20260504171419 68 270 1.0 3.0 0.00 0.00 0.00 23 1018.2
20260504170419 68 298 1.0 3.0 0.00 0.00 0.00 23 1018.3
20260504160417 74 311 2.0 4.0 0.00 0.00 0.00 21 1018.8
20260504150416 77 300 5.0 8.0 0.00 0.00 0.00 20 1019.4